| time (UTC) | temp F | wind direction | speed knots | gust knots | rain 1hr in | rain 24hr in | rain mn in | humidity % | barometer mb |
| 20260503190046 | 65 | 102 | 0.0 | 5.2 | 0.00 | 0.00 | 0.00 | 40 | 1016.2 |
| 20260503184542 | 65 | 295 | 0.0 | 5.2 | 0.00 | 0.00 | 0.00 | 39 | 1016.4 |
| 20260503183041 | 64 | 137 | 0.9 | 5.2 | 0.00 | 0.00 | 0.00 | 39 | 1016.6 |
| 20260503181555 | 64 | 129 | 1.7 | 7.0 | 0.00 | 0.00 | 0.00 | 41 | 1016.9 |
| 20260503180045 | 63 | 114 | 2.6 | 6.1 | 0.00 | 0.00 | 0.00 | 41 | 1017.1 |
| 20260503174536 | 62 | 68 | 0.9 | 5.2 | 0.00 | 0.00 | 0.00 | 40 | 1017.3 |
| 20260503173034 | 61 | 309 | 1.7 | 7.8 | 0.00 | 0.00 | 0.00 | 40 | 1017.4 |
| 20260503171533 | 61 | 102 | 5.2 | 8.7 | 0.00 | 0.00 | 0.00 | 41 | 1017.6 |
| 20260503081514 | 43 | 330 | 0.0 | 2.6 | 0.00 | 0.00 | 0.00 | 76 | 1016.1 |
| 20260503071509 | 43 | 299 | 1.7 | 4.3 | 0.00 | 0.00 | 0.00 | 78 | 1015.4 |
| 20260503054600 | 39 | 255 | 0.9 | 2.6 | 0.00 | 0.00 | 0.00 | 90 | 1015.4 |
| 20260503053056 | 39 | 353 | 0.0 | 0.0 | 0.00 | 0.00 | 0.00 | 90 | 1015.4 |
| 20260503051553 | 39 | 354 | 0.0 | 0.0 | 0.00 | 0.00 | 0.00 | 89 | 1015.3 |
| 20260503050051 | 39 | 354 | 0.0 | 0.0 | 0.00 | 0.00 | 0.00 | 87 | 1015.1 |
| 20260503044602 | 39 | 267 | 0.0 | 0.0 | 0.00 | 0.00 | 0.00 | 86 | 1015.0 |
| 20260503043051 | 40 | 267 | 0.0 | 0.0 | 0.00 | 0.00 | 0.00 | 85 | 1014.9 |
| 20260503041607 | 40 | 266 | 0.0 | 0.0 | 0.00 | 0.00 | 0.00 | 84 | 1014.7 |
| 20260503040051 | 41 | 276 | 0.0 | 0.0 | 0.00 | 0.00 | 0.00 | 83 | 1014.5 |
| 20260503034543 | 41 | 288 | 0.0 | 0.0 | 0.00 | 0.00 | 0.00 | 83 | 1014.4 |
| 20260503033043 | 41 | 293 | 0.0 | 1.7 | 0.00 | 0.00 | 0.00 | 82 | 1014.2 |
| 20260503031539 | 41 | 284 | 0.0 | 2.6 | 0.00 | 0.00 | 0.00 | 81 | 1014.1 |
| 20260503030037 | 42 | 279 | 0.0 | 0.9 | 0.00 | 0.00 | 0.00 | 80 | 1014.1 |
| 20260503024538 | 43 | 318 | 0.0 | 0.9 | 0.00 | 0.00 | 0.00 | 78 | 1014.0 |
| 20260503023031 | 43 | 288 | 0.0 | 1.7 | 0.00 | 0.00 | 0.00 | 77 | 1013.8 |
| 20260503021528 | 44 | 302 | 0.0 | 0.0 | 0.00 | 0.00 | 0.00 | 75 | 1013.6 |
| 20260503020025 | 47 | 292 | 0.0 | 0.0 | 0.00 | 0.00 | 0.00 | 70 | 1013.5 |
| 20260503014522 | 48 | 292 | 0.0 | 0.9 | 0.00 | 0.00 | 0.00 | 67 | 1013.3 |
| 20260503013017 | 50 | 299 | 0.0 | 0.9 | 0.00 | 0.00 | 0.00 | 62 | 1013.1 |
| 20260503011524 | 53 | 30 | 0.0 | 0.9 | 0.00 | 0.00 | 0.00 | 55 | 1012.9 |
| 20260503010010 | 53 | 312 | 0.0 | 4.3 | 0.00 | 0.00 | 0.00 | 53 | 1012.4 |
| 20260503004509 | 54 | 302 | 1.7 | 5.2 | 0.00 | 0.00 | 0.00 | 51 | 1012.2 |
| 20260503003008 | 55 | 313 | 0.9 | 6.1 | 0.00 | 0.00 | 0.00 | 50 | 1012.1 |
| 20260503001508 | 55 | 314 | 0.9 | 3.5 | 0.00 | 0.00 | 0.00 | 48 | 1011.8 |
| 20260503000010 | 57 | 313 | 0.0 | 3.5 | 0.00 | 0.00 | 0.00 | 46 | 1011.7 |
| 20260502234528 | 58 | 21 | 1.7 | 6.1 | 0.00 | 0.00 | 0.00 | 44 | 1011.5 |
| 20260502233010 | 60 | 319 | 3.5 | 11.3 | 0.00 | 0.00 | 0.00 | 42 | 1011.2 |
| 20260502231510 | 60 | 333 | 4.3 | 9.6 | 0.00 | 0.00 | 0.00 | 41 | 1011.0 |
| 20260502230008 | 61 | 20 | 5.2 | 13.9 | 0.00 | 0.00 | 0.00 | 40 | 1010.8 |
| 20260502224511 | 60 | 300 | 4.3 | 11.3 | 0.00 | 0.00 | 0.00 | 41 | 1010.8 |
| 20260502223008 | 61 | 49 | 4.3 | 13.0 | 0.00 | 0.00 | 0.00 | 40 | 1010.7 |
| 20260502221507 | 62 | 23 | 4.3 | 13.0 | 0.00 | 0.00 | 0.00 | 39 | 1010.2 |
| 20260502220018 | 63 | 309 | 5.2 | 14.8 | 0.00 | 0.00 | 0.00 | 37 | 1010.0 |
| 20260502214506 | 63 | 77 | 3.5 | 13.9 | 0.00 | 0.00 | 0.00 | 37 | 1009.7 |
| 20260502213019 | 63 | 3 | 5.2 | 13.0 | 0.00 | 0.00 | 0.00 | 37 | 1009.4 |
| 20260502211503 | 62 | 6 | 7.0 | 14.8 | 0.00 | 0.00 | 0.00 | 37 | 1009.4 |
| 20260502210004 | 64 | 296 | 4.3 | 13.9 | 0.00 | 0.00 | 0.00 | 36 | 1009.4 |
| 20260502204508 | 64 | 300 | 6.1 | 12.2 | 0.00 | 0.00 | 0.00 | 35 | 1009.3 |
| 20260502203007 | 64 | 12 | 4.3 | 11.3 | 0.00 | 0.00 | 0.00 | 35 | 1009.4 |
| 20260502201507 | 64 | 319 | 4.3 | 13.9 | 0.00 | 0.00 | 0.00 | 34 | 1009.6 |
| 20260502200006 | 64 | 352 | 7.0 | 17.4 | 0.00 | 0.00 | 0.00 | 36 | 1009.6 |
| 20260502194506 | 64 | 335 | 5.2 | 12.2 | 0.00 | 0.00 | 0.00 | 36 | 1009.6 |
| 20260502193004 | 64 | 354 | 7.0 | 16.5 | 0.00 | 0.00 | 0.00 | 35 | 1009.9 |
| 20260502191504 | 65 | 8 | 4.3 | 11.3 | 0.00 | 0.00 | 0.00 | 36 | 1010.0 |